Flag for Moldova Weather past 2 weeks in Bălți, Moldova

Now
57 °F

Broken clouds.


Feels Like: 54 °F
Forecast: 44 / 56 °F
Wind: 16 mph from East

Location: Iasi Airport

Current Time: Oct 22, 2014 at 3:38:00 PM

Latest Report: Oct 22, 2014 at 3:00 PM


Visibility: N/A

Pressure: 29.65 "Hg

Humidity: 88%

Dew point: 54 °F

Location of BălțiLocation

Historic Weather in Bălți — Graph

°F

Bălți temperature yesterday

Maximum temperature yesterday: 57 °F (at 12:00 AM)
Minimum temperature yesterday: 48 °F (at 11:00 PM)
Average temperature yesterday: 54 °F

Past Weeks' High & Low Weather Summary

 TemperatureHumidityPressure
High77 °F (Oct 15, 4:30 PM)100% (Oct 10, 7:00 AM)30.42 "Hg (Oct 10, 7:00 AM)
Low32 °F (Oct 19, 7:30 AM)29% (Oct 13, 3:30 PM)29.68 "Hg (Oct 22, 1:30 PM)
Average56 °F74%30.06 "Hg
* Reported Oct 7 2:00 PM — Oct 22 2:30 PM, Bălți, Weather by CustomWeather, © 2014

Note: Actual official high and low records may vary slightly from our data, if they occured in-between our weather recording intervals... More about our weather records

Advertising

Bălți weather history for previous 24 hours

 ConditionsComfort  
Time TempWeatherWind HumidityBarometerVisibility
2:30 PM
Oct 22
57 °FPassing clouds.16 mph88%29.68 "HgN/A
2:00 PM57 °FPartly sunny.16 mph88%29.68 "HgN/A
1:30 PM55 °FPartly sunny.16 mph94%29.68 "HgN/A
12:30 PM54 °FBroken clouds.14 mph100%29.74 "HgN/A
11:30 AM52 °FScattered clouds.12 mph100%29.74 "Hg4 mi
11:00 AM50 °FFog.14 mph100%29.74 "Hg2 mi
10:30 AM50 °FFog.9 mph100%29.74 "Hg0 mi
10:00 AM48 °FFog.9 mph100%29.74 "Hg0 mi
9:30 AM48 °FFog.12 mph100%29.77 "Hg0 mi
9:00 AM46 °FFog.9 mph100%29.77 "Hg0 mi
8:30 AM46 °FFog.7 mph100%29.77 "Hg0 mi
8:00 AM46 °FFog.7 mph100%29.74 "Hg0 mi
7:30 AM46 °FFog.9 mph100%29.74 "Hg0 mi
7:00 AM46 °FFog.9 mph100%29.74 "Hg0 mi
6:30 AM46 °FFog.9 mph100%29.74 "Hg0 mi
6:00 AM46 °FFog.5 mph100%29.74 "Hg0 mi
5:30 AM46 °FFog.5 mph100%29.77 "Hg0 mi
5:00 AM46 °FFog.5 mph100%29.77 "Hg0 mi
4:00 AM46 °FFog.5 mph100%29.77 "Hg0 mi
3:00 AM45 °FFog.2 mph100%29.77 "Hg0 mi
2:00 AM45 °FFog.2 mph100%29.80 "Hg0 mi
1:00 AM46 °FFog.2 mph100%29.80 "Hg0 mi
12:00 AM46 °FFog.2 mph100%29.80 "Hg0 mi
11:00 PM
Oct 21
48 °FFog.2 mph100%29.80 "Hg3 mi
10:00 PM50 °FFog.2 mph100%29.83 "Hg1 mi
9:00 PM52 °FFog.2 mph100%29.83 "Hg5 mi
8:30 PM52 °FFog.2 mph100%29.83 "Hg3 mi
8:00 PM52 °FFog.5 mph100%29.83 "Hg3 mi
7:30 PM52 °FLight rain. Fog.2 mph100%29.83 "Hg2 mi
7:00 PM52 °FLight rain. Fog.No wind100%29.83 "Hg1 mi
6:30 PM52 °FLight rain. Fog.2 mph100%29.83 "Hg1 mi
6:00 PM54 °FLight rain. Fog.2 mph100%29.83 "Hg2 mi
5:30 PM54 °FLight rain. Fog.2 mph100%29.83 "Hg2 mi
5:00 PM54 °FLight rain. Fog.2 mph100%29.83 "Hg3 mi
4:30 PM54 °FLight rain. Partly sunny.2 mph100%29.83 "Hg5 mi
4:00 PM54 °FScattered clouds.5 mph100%29.86 "HgN/A
3:30 PM54 °FLight rain. Scattered clouds.5 mph100%29.86 "Hg4 mi
3:00 PM54 °FLight rain. Fog.5 mph100%29.86 "Hg3 mi
Weather by CustomWeather, © 2014

See weather overviewHow to use our weather pages